NJE27X EBOS-EBAW

Flight info

Callsign NJE27X
Flight time 0h 24m
Altitude 21000
Route DCT
Aircraft SF50/L-SDGRWY/L

Departure

Time 2026-04-28 18:59
Airport Ostend-Bruges International Airport (EBOS)

Arrival

Time 2026-04-28 19:23
Airport Antwerp International Airport (Deurne) (EBAW)
Time Latitude Longitude Altitude Speed Heading
2026-04-28 18:42 51.20160 2.86884 17 ft 0 kts 167°
2026-04-28 18:53 51.20166 2.86892 17 ft 2 kts 340°
2026-04-28 18:53 51.20222 2.86843 17 ft 16 kts 298°
2026-04-28 18:53 51.20187 2.86710 17 ft 12 kts 199°
2026-04-28 18:54 51.20118 2.86694 17 ft 9 kts 186°
2026-04-28 18:54 51.20061 2.86682 17 ft 8 kts 198°
2026-04-28 18:54 51.20023 2.86601 17 ft 13 kts 256°
2026-04-28 18:54 51.19993 2.86413 17 ft 22 kts 256°
2026-04-28 18:55 51.19955 2.86150 17 ft 25 kts 256°
2026-04-28 18:55 51.19926 2.85961 17 ft 26 kts 256°
2026-04-28 18:55 51.19876 2.85623 17 ft 20 kts 256°
2026-04-28 18:55 51.19846 2.85428 17 ft 16 kts 257°
2026-04-28 18:56 51.19798 2.85296 17 ft 13 kts 212°
2026-04-28 18:56 51.19744 2.85257 16 ft 0 kts 166°
2026-04-28 18:58 51.19710 2.85271 16 ft 10 kts 164°
2026-04-28 18:58 51.19666 2.85309 16 ft 5 kts 105°
2026-04-28 18:58 51.19696 2.85543 16 ft 56 kts 75°
2026-04-28 18:59 51.19829 2.86528 181 ft 110 kts 77°
2026-04-28 18:59 51.19976 2.87799 674 ft 128 kts 70°
2026-04-28 18:59 51.20245 2.89269 1216 ft 143 kts 74°
2026-04-28 18:59 51.20471 2.90765 2167 ft 133 kts 76°
2026-04-28 19:00 51.20689 2.92184 2968 ft 135 kts 77°
2026-04-28 19:00 51.20917 2.93697 3675 ft 142 kts 78°
2026-04-28 19:00 51.21151 2.95270 4359 ft 148 kts 78°
2026-04-28 19:00 51.21392 2.96893 5001 ft 157 kts 78°
2026-04-28 19:01 51.21650 2.98625 5710 ft 158 kts 78°
2026-04-28 19:01 51.21901 3.00323 6398 ft 161 kts 78°
2026-04-28 19:01 51.21996 3.02104 7044 ft 162 kts 95°
2026-04-28 19:01 51.21892 3.03922 7653 ft 167 kts 93°
2026-04-28 19:02 51.21829 3.05775 8369 ft 166 kts 93°
2026-04-28 19:02 51.21754 3.07624 9060 ft 168 kts 94°
2026-04-28 19:02 51.21675 3.09490 9761 ft 171 kts 94°
2026-04-28 19:02 51.21592 3.11442 10187 ft 189 kts 94°
2026-04-28 19:03 51.21496 3.13692 10205 ft 216 kts 94°
2026-04-28 19:03 51.21387 3.16154 10610 ft 216 kts 94°
2026-04-28 19:03 51.21290 3.18403 11687 ft 189 kts 94°
2026-04-28 19:03 51.21218 3.20404 12587 ft 177 kts 89°
2026-04-28 19:04 51.21085 3.22457 12705 ft 202 kts 99°
2026-04-28 19:04 51.20920 3.24715 13291 ft 196 kts 88°
2026-04-28 19:04 51.21070 3.26767 14178 ft 184 kts 83°
2026-04-28 19:04 51.21177 3.28119 14520 ft 186 kts 85°
2026-04-28 19:05 51.21290 3.30884 15167 ft 192 kts 88°
2026-04-28 19:05 51.21329 3.32356 15189 ft 210 kts 88°
2026-04-28 19:05 51.21396 3.34802 15202 ft 230 kts 88°
2026-04-28 19:05 51.21469 3.37424 15200 ft 242 kts 88°
2026-04-28 19:06 51.21569 3.41067 15201 ft 252 kts 88°
2026-04-28 19:06 51.21621 3.42975 15201 ft 257 kts 88°
2026-04-28 19:06 51.21724 3.46792 15200 ft 263 kts 88°
2026-04-28 19:06 51.21777 3.48775 15194 ft 266 kts 88°
2026-04-28 19:07 51.21859 3.51841 14715 ft 287 kts 88°
2026-04-28 19:07 51.21944 3.55034 14656 ft 281 kts 88°
2026-04-28 19:07 51.22024 3.58027 13145 ft 275 kts 88°
2026-04-28 19:07 51.22099 3.61007 11449 ft 262 kts 88°
2026-04-28 19:08 51.22172 3.63894 9579 ft 257 kts 88°
2026-04-28 19:08 51.22245 3.66728 7751 ft 252 kts 88°
2026-04-28 19:08 51.22309 3.69295 7190 ft 212 kts 88°
2026-04-28 19:08 51.22366 3.71600 5864 ft 211 kts 88°
2026-04-28 19:09 51.22425 3.73985 3846 ft 229 kts 88°
2026-04-28 19:09 51.22483 3.76438 2993 ft 199 kts 87°
2026-04-28 19:09 51.22529 3.78362 2963 ft 156 kts 86°
2026-04-28 19:09 51.22567 3.79924 2963 ft 127 kts 86°
2026-04-28 19:10 51.22598 3.81220 2962 ft 108 kts 86°
2026-04-28 19:10 51.22626 3.82334 2960 ft 93 kts 86°
2026-04-28 19:10 51.22647 3.83299 2963 ft 81 kts 86°
2026-04-28 19:10 51.22729 3.84122 2959 ft 76 kts 65°
2026-04-28 19:11 51.22989 3.84904 2977 ft 84 kts 70°
2026-04-28 19:11 51.23253 3.85799 2985 ft 95 kts 69°
2026-04-28 19:11 51.23565 3.86864 2990 ft 120 kts 68°
2026-04-28 19:11 51.23936 3.88107 2983 ft 127 kts 68°
2026-04-28 19:12 51.24320 3.89396 2980 ft 130 kts 68°
2026-04-28 19:12 51.24710 3.90719 2983 ft 132 kts 68°
2026-04-28 19:12 51.25103 3.92058 2981 ft 135 kts 68°
2026-04-28 19:12 51.25464 3.93437 2982 ft 134 kts 81°
2026-04-28 19:13 51.25424 3.94925 2980 ft 135 kts 90°
2026-04-28 19:13 51.25428 3.96412 2986 ft 136 kts 88°
2026-04-28 19:13 51.25447 3.97930 2993 ft 137 kts 89°
2026-04-28 19:13 51.25460 3.99462 2986 ft 138 kts 88°
2026-04-28 19:14 51.25477 4.00987 2991 ft 137 kts 88°
2026-04-28 19:14 51.25481 4.02499 2990 ft 135 kts 88°
2026-04-28 19:14 51.25499 4.03995 2990 ft 135 kts 88°
2026-04-28 19:14 51.25515 4.05502 2991 ft 136 kts 88°
2026-04-28 19:15 51.25528 4.07020 2992 ft 137 kts 88°
2026-04-28 19:15 51.25544 4.08551 2994 ft 138 kts 88°
2026-04-28 19:15 51.25557 4.10092 2996 ft 140 kts 89°
2026-04-28 19:15 51.25567 4.11120 2995 ft 140 kts 89°
2026-04-28 19:16 51.25582 4.13053 2979 ft 124 kts 89°
2026-04-28 19:16 51.25594 4.14450 2981 ft 127 kts 89°
2026-04-28 19:16 51.25605 4.15880 2985 ft 130 kts 88°
2026-04-28 19:16 51.25524 4.17327 2984 ft 133 kts 100°
2026-04-28 19:17 51.25205 4.18740 2989 ft 136 kts 105°
2026-04-28 19:17 51.24893 4.20149 2998 ft 137 kts 104°
2026-04-28 19:17 51.24571 4.21586 2995 ft 138 kts 105°
2026-04-28 19:17 51.24241 4.23057 2991 ft 140 kts 105°
2026-04-28 19:18 51.23909 4.24523 2993 ft 141 kts 105°
2026-04-28 19:18 51.23575 4.25997 2981 ft 142 kts 105°
2026-04-28 19:18 51.23230 4.27534 2784 ft 153 kts 105°
2026-04-28 19:18 51.22854 4.29230 2534 ft 171 kts 105°
2026-04-28 19:19 51.22464 4.30938 2273 ft 161 kts 105°
2026-04-28 19:19 51.22094 4.32584 2025 ft 154 kts 105°
2026-04-28 19:19 51.21741 4.34131 1789 ft 137 kts 105°
2026-04-28 19:19 51.21444 4.35404 1586 ft 113 kts 104°
2026-04-28 19:20 51.21198 4.36510 1418 ft 96 kts 100°
2026-04-28 19:20 51.20996 4.37426 1274 ft 82 kts 98°
2026-04-28 19:20 51.20806 4.38268 1146 ft 79 kts 98°
2026-04-28 19:20 51.20617 4.39090 1026 ft 79 kts 100°
2026-04-28 19:21 51.20406 4.39899 896 ft 77 kts 107°
2026-04-28 19:21 51.20227 4.40691 769 ft 78 kts 94°
2026-04-28 19:21 51.20068 4.41544 653 ft 83 kts 106°
2026-04-28 19:21 51.19877 4.42367 596 ft 78 kts 103°
2026-04-28 19:22 51.19692 4.43135 483 ft 72 kts 100°
2026-04-28 19:22 51.19575 4.43657 379 ft 76 kts 99°
2026-04-28 19:22 51.19391 4.44701 224 ft 79 kts 95°
2026-04-28 19:22 51.19144 4.45632 59 ft 81 kts 98°
2026-04-28 19:23 51.18998 4.46320 39 ft 53 kts 111°
2026-04-28 19:23 51.18901 4.46784 37 ft 39 kts 114°
2026-04-28 19:23 51.18802 4.47112 36 ft 22 kts 158°
2026-04-28 19:23 51.18673 4.47074 32 ft 18 kts 231°
2026-04-28 19:24 51.18603 4.46907 32 ft 18 kts 245°
2026-04-28 19:24 51.18577 4.46741 32 ft 13 kts 271°
2026-04-28 19:24 51.18586 4.46599 32 ft 14 kts 282°
2026-04-28 19:24 51.18610 4.46424 32 ft 19 kts 283°
2026-04-28 19:25 51.18646 4.46196 32 ft 24 kts 285°
2026-04-28 19:25 51.18688 4.45955 32 ft 21 kts 284°
2026-04-28 19:25 51.18719 4.45755 32 ft 16 kts 284°
2026-04-28 19:25 51.18742 4.45599 32 ft 13 kts 283°
2026-04-28 19:26 51.18760 4.45484 32 ft 9 kts 284°
2026-04-28 19:26 51.18763 4.45430 32 ft 8 kts 284°
2026-04-28 19:26 51.18772 4.45409 32 ft 0 kts 331°